TimeEDT,TemperatureF,Dew PointF,Humidity,Sea Level PressureIn,VisibilityMPH,Wind Direction,Wind SpeedMPH,Gust SpeedMPH,PrecipitationIn,Events,Conditions,WindDirDegrees,DateUTC
12:15 AM,46.4,46.2,99,30.08,7.0,Calm,Calm,-,N/A,,Clear,0,2013-09-30 04:15:00
12:35 AM,45.9,45.7,99,30.09,7.0,Calm,Calm,-,N/A,,Clear,0,2013-09-30 04:35:00
12:55 AM,46.6,46.6,100,30.09,7.0,Calm,Calm,-,N/A,,Clear,0,2013-09-30 04:55:00
1:15 AM,45.7,45.7,100,30.09,7.0,Calm,Calm,-,N/A,,Clear,0,2013-09-30 05:15:00
1:35 AM,46.2,46.0,99,30.09,7.0,Calm,Calm,-,N/A,,Clear,0,2013-09-30 05:35:00
1:55 AM,45.7,45.7,100,30.09,7.0,Calm,Calm,-,N/A,,Clear,0,2013-09-30 05:55:00
2:15 AM,45.0,45.0,100,30.09,7.0,Calm,Calm,-,N/A,,Clear,0,2013-09-30 06:15:00
2:35 AM,45.1,45.1,100,30.09,7.0,Calm,Calm,-,N/A,,Clear,0,2013-09-30 06:35:00
2:55 AM,44.4,44.4,100,30.08,7.0,Calm,Calm,-,N/A,,Clear,0,2013-09-30 06:55:00
3:15 AM,45.1,45.1,100,30.08,7.0,Calm,Calm,-,N/A,,Clear,0,2013-09-30 07:15:00
3:35 AM,44.8,44.8,100,30.08,7.0,Calm,Calm,-,N/A,,Clear,0,2013-09-30 07:35:00
3:55 AM,44.6,44.6,100,30.08,7.0,Calm,Calm,-,N/A,,Clear,0,2013-09-30 07:55:00
4:15 AM,44.6,44.6,100,30.08,7.0,Calm,Calm,-,N/A,,Clear,0,2013-09-30 08:15:00
4:35 AM,44.8,44.8,100,30.08,7.0,Calm,Calm,-,N/A,,Clear,0,2013-09-30 08:35:00
4:55 AM,44.1,44.1,100,30.08,7.0,Calm,Calm,-,N/A,,Clear,0,2013-09-30 08:55:00
5:15 AM,43.7,43.7,100,30.08,5.0,Calm,Calm,-,N/A,,Clear,0,2013-09-30 09:15:00
5:35 AM,44.2,44.2,100,30.08,7.0,Calm,Calm,-,N/A,,Clear,0,2013-09-30 09:35:00
5:55 AM,44.1,44.1,100,30.08,10.0,Calm,Calm,-,N/A,,Clear,0,2013-09-30 09:55:00
6:15 AM,44.8,44.8,100,30.09,7.0,Calm,Calm,-,N/A,,Clear,0,2013-09-30 10:15:00
6:35 AM,45.9,45.9,100,30.10,7.0,Calm,Calm,-,N/A,,Clear,0,2013-09-30 10:35:00
6:55 AM,45.7,45.7,100,30.10,7.0,Calm,Calm,-,N/A,,Clear,0,2013-09-30 10:55:00
7:15 AM,45.5,45.5,100,30.11,10.0,Calm,Calm,-,N/A,,Clear,0,2013-09-30 11:15:00
7:35 AM,46.9,46.9,100,30.11,7.0,Calm,Calm,-,N/A,,Clear,0,2013-09-30 11:35:00
7:55 AM,48.0,48.0,100,30.11,7.0,Calm,Calm,-,N/A,,Clear,0,2013-09-30 11:55:00
8:15 AM,49.3,49.3,100,30.12,10.0,Calm,Calm,-,N/A,,Scattered Clouds,0,2013-09-30 12:15:00
8:35 AM,50.0,50.0,100,30.12,10.0,Calm,Calm,-,N/A,,Scattered Clouds,0,2013-09-30 12:35:00
8:55 AM,51.3,51.3,100,30.12,10.0,Calm,Calm,-,N/A,,Scattered Clouds,0,2013-09-30 12:55:00
9:15 AM,52.5,52.5,100,30.12,10.0,Calm,Calm,-,N/A,,Scattered Clouds,0,2013-09-30 13:15:00
9:35 AM,54.9,54.1,97,30.12,10.0,Calm,Calm,-,N/A,,Clear,0,2013-09-30 13:35:00
9:55 AM,56.7,54.3,92,30.12,10.0,Calm,Calm,-,N/A,,Clear,0,2013-09-30 13:55:00
10:15 AM,58.6,55.0,88,30.12,10.0,Calm,Calm,-,N/A,,Clear,0,2013-09-30 14:15:00
10:35 AM,61.2,54.1,78,30.12,10.0,Calm,Calm,-,N/A,,Clear,0,2013-09-30 14:35:00
10:55 AM,63.0,54.3,73,30.11,10.0,Calm,Calm,-,N/A,,Clear,0,2013-09-30 14:55:00
11:15 AM,65.1,55.4,71,30.11,10.0,Calm,Calm,-,N/A,,Clear,0,2013-09-30 15:15:00
11:35 AM,67.3,55.9,67,30.10,10.0,Calm,Calm,-,N/A,,Clear,0,2013-09-30 15:35:00
11:55 AM,69.3,55.0,60,30.10,10.0,SSW,4.6,-,N/A,,Clear,210,2013-09-30 15:55:00
12:15 PM,70.2,54.0,56,30.09,10.0,SSE,4.6,-,N/A,,Clear,150,2013-09-30 16:15:00
12:35 PM,71.2,52.0,51,30.08,10.0,SW,3.5,-,N/A,,Clear,220,2013-09-30 16:35:00
12:55 PM,71.6,52.9,52,30.08,10.0,Calm,Calm,-,N/A,,Clear,0,2013-09-30 16:55:00
1:15 PM,73.0,52.3,48,30.07,10.0,South,4.6,-,N/A,,Clear,170,2013-09-30 17:15:00
1:35 PM,73.4,51.8,47,30.06,10.0,Calm,Calm,-,N/A,,Clear,0,2013-09-30 17:35:00
1:55 PM,73.4,51.1,45,30.06,10.0,Calm,Calm,-,N/A,,Clear,0,2013-09-30 17:55:00
2:15 PM,74.5,49.5,41,30.05,10.0,SSW,3.5,-,N/A,,Clear,200,2013-09-30 18:15:00
2:35 PM,75.2,50.5,42,30.04,10.0,NNW,4.6,-,N/A,,Clear,330,2013-09-30 18:35:00
2:55 PM,75.2,50.2,41,30.03,10.0,Calm,Calm,-,N/A,,Clear,0,2013-09-30 18:55:00
3:15 PM,75.2,50.7,42,30.03,10.0,Calm,Calm,-,N/A,,Clear,0,2013-09-30 19:15:00
3:35 PM,75.2,51.3,43,30.02,10.0,South,3.5,-,N/A,,Clear,180,2013-09-30 19:35:00
3:55 PM,75.9,51.1,42,30.02,10.0,SSW,3.5,-,N/A,,Clear,200,2013-09-30 19:55:00
4:15 PM,74.7,51.3,44,30.02,10.0,South,4.6,-,N/A,,Clear,190,2013-09-30 20:15:00
4:35 PM,75.2,53.4,47,30.01,10.0,Calm,Calm,-,N/A,,Clear,0,2013-09-30 20:35:00
4:55 PM,75.2,52.2,44,30.01,10.0,Calm,Calm,-,N/A,,Clear,0,2013-09-30 20:55:00
5:15 PM,75.6,52.7,45,30.02,10.0,Calm,Calm,-,N/A,,Clear,0,2013-09-30 21:15:00
5:35 PM,75.2,51.4,43,30.02,10.0,Calm,Calm,-,N/A,,Clear,0,2013-09-30 21:35:00
5:55 PM,74.5,53.2,47,30.02,10.0,Calm,Calm,-,N/A,,Clear,0,2013-09-30 21:55:00
6:15 PM,71.8,57.0,60,30.03,10.0,Calm,Calm,-,N/A,,Clear,0,2013-09-30 22:15:00
6:35 PM,64.8,59.2,82,30.03,10.0,Calm,Calm,-,N/A,,Clear,0,2013-09-30 22:35:00
6:55 PM,62.4,59.0,89,30.03,10.0,Calm,Calm,-,N/A,,Clear,0,2013-09-30 22:55:00
7:15 PM,60.3,57.9,92,30.04,10.0,Calm,Calm,-,N/A,,Clear,0,2013-09-30 23:15:00
7:35 PM,58.6,57.0,94,30.04,10.0,Calm,Calm,-,N/A,,Clear,0,2013-09-30 23:35:00
7:55 PM,57.2,55.9,96,30.05,10.0,Calm,Calm,-,N/A,,Clear,0,2013-09-30 23:55:00
8:15 PM,56.5,55.4,96,30.05,10.0,Calm,Calm,-,N/A,,Clear,0,2013-10-01 00:15:00
8:35 PM,55.4,54.1,96,30.06,10.0,Calm,Calm,-,N/A,,Clear,0,2013-10-01 00:35:00
8:55 PM,54.7,53.8,97,30.07,7.0,Calm,Calm,-,N/A,,Clear,0,2013-10-01 00:55:00
9:15 PM,54.3,53.4,97,30.07,10.0,Calm,Calm,-,N/A,,Clear,0,2013-10-01 01:15:00
9:35 PM,54.3,53.6,97,30.07,10.0,Calm,Calm,-,N/A,,Clear,0,2013-10-01 01:35:00
9:55 PM,53.8,53.2,98,30.08,7.0,Calm,Calm,-,N/A,,Clear,0,2013-10-01 01:55:00
10:15 PM,54.0,53.4,98,30.08,7.0,Calm,Calm,-,N/A,,Clear,0,2013-10-01 02:15:00
10:35 PM,53.2,52.7,98,30.08,7.0,Calm,Calm,-,N/A,,Clear,0,2013-10-01 02:35:00
10:55 PM,53.1,52.7,99,30.08,7.0,Calm,Calm,-,N/A,,Clear,0,2013-10-01 02:55:00
11:15 PM,52.0,51.8,99,30.09,5.0,Calm,Calm,-,N/A,,Clear,0,2013-10-01 03:15:00
11:35 PM,52.2,52.0,99,30.08,7.0,Calm,Calm,-,N/A,,Clear,0,2013-10-01 03:35:00
11:55 PM,51.8,51.8,100,30.08,7.0,Calm,Calm,-,N/A,,Scattered Clouds,0,2013-10-01 03:55:00